Flag for Poland Weather past 2 weeks in Tychy, Poland

Now
54 °F

Partly sunny.


Feels Like: 49 °F
Forecast: 46 / 62 °F
Wind: 15 mph from Northwest

Location: Katowice Airport

Current Time: May 27, 2015 at 4:12:58 PM

Latest Report: May 27, 2015 at 4:00 PM


Visibility: N/A

Pressure: 30.01 "Hg

Humidity: 58%

Dew point: 39 °F

Location of TychyLocation

Historic Weather in Tychy — Graph

°F

Tychy temperature yesterday

Maximum temperature yesterday: 59 °F (at 12:30 PM)
Minimum temperature yesterday: 52 °F (at 11:30 PM)
Average temperature yesterday: 55 °F

Past Weeks' High & Low Weather Summary

 TemperatureHumidityPressure
High75 °F (May 19, 1:00 PM)100% (May 20, 4:30 AM)30.24 "Hg (May 20, 4:30 AM)
Low34 °F (May 15, 3:30 AM)25% (May 12, 3:30 PM)29.74 "Hg (May 14, 6:00 AM)
Average55 °F74%29.98 "Hg
* Reported May 12 3:00 PM — May 27 3:00 PM, Tychy, Weather by CustomWeather, © 2015

Note: Actual official high and low records may vary slightly from our data, if they occured in-between our weather recording intervals... More about our weather records

Advertising

Tychy weather history for previous 24 hours

 ConditionsComfort  
Time TempWeatherWind HumidityBarometerVisibility
3:00 PM
Wed, May 27
54 °FBroken clouds.13 mph63%30.01 "HgN/A
2:30 PM52 °FBroken clouds.13 mph62%30.01 "HgN/A
2:00 PM52 °FBroken clouds.15 mph62%30.01 "HgN/A
1:30 PM54 °FBroken clouds.13 mph58%30.01 "HgN/A
1:00 PM54 °FBroken clouds.13 mph58%30.01 "HgN/A
12:30 PM54 °FBroken clouds.13 mph58%30.01 "HgN/A
12:00 PM52 °FBroken clouds.14 mph67%30.01 "HgN/A
11:30 AM52 °FBroken clouds.14 mph62%30.01 "HgN/A
11:00 AM52 °FBroken clouds.13 mph58%30.01 "HgN/A
10:30 AM52 °FBroken clouds.17 mph67%30.01 "HgN/A
10:00 AM50 °FBroken clouds.13 mph71%30.01 "HgN/A
9:30 AM50 °FScattered clouds.13 mph71%30.01 "HgN/A
9:00 AM50 °FScattered clouds.12 mph71%29.98 "HgN/A
8:30 AM48 °FPassing clouds.12 mph76%30.01 "HgN/A
8:00 AM48 °FPassing clouds.10 mph76%30.01 "HgN/A
7:30 AM46 °FSunny.10 mph82%29.98 "Hg10 mi
7:00 AM46 °FSunny.10 mph76%29.98 "Hg10 mi
6:30 AM46 °FSunny.10 mph82%29.98 "Hg10 mi
6:00 AM46 °FSunny.8 mph82%29.98 "Hg10 mi
5:30 AM46 °FClear.9 mph82%29.98 "Hg10 mi
5:00 AM46 °FClear.10 mph82%29.95 "Hg10 mi
4:30 AM48 °FClear.10 mph76%29.95 "Hg10 mi
4:00 AM48 °FClear.10 mph76%29.95 "Hg10 mi
3:30 AM48 °FClear.10 mph76%29.92 "Hg10 mi
3:00 AM50 °FClear.12 mph76%29.92 "Hg10 mi
2:30 AM50 °FClear.10 mph76%29.92 "Hg10 mi
2:00 AM52 °FClear.13 mph72%29.92 "Hg10 mi
1:30 AM52 °FClear.13 mph72%29.92 "Hg10 mi
1:00 AM52 °FClear.14 mph77%29.89 "Hg10 mi
12:30 AM52 °FPassing clouds.14 mph77%29.89 "HgN/A
12:00 AM52 °FPassing clouds.10 mph82%29.89 "HgN/A
11:30 PM
Tue, May 26
52 °FLight rain. Passing clouds.10 mph88%29.89 "HgN/A
11:00 PM54 °FPassing clouds.9 mph77%29.89 "HgN/A
10:30 PM54 °FPassing clouds.10 mph82%29.89 "HgN/A
10:00 PM54 °FLight rain. Passing clouds.8 mph82%29.89 "HgN/A
9:30 PM54 °FLight rain. Clear.10 mph82%29.89 "HgN/A
9:00 PM54 °FLight rain. Scattered clouds.9 mph88%29.89 "HgN/A
8:30 PM54 °FLight rain. Partly sunny.8 mph88%29.89 "HgN/A
8:00 PM55 °FBroken clouds.12 mph88%29.86 "HgN/A
7:30 PM55 °FBroken clouds.16 mph88%29.86 "HgN/A
7:00 PM55 °FBroken clouds.13 mph88%29.86 "Hg5 mi
6:30 PM55 °FSprinkles. Broken clouds.12 mph94%29.86 "Hg4 mi
6:00 PM55 °FSprinkles. Broken clouds.10 mph94%29.83 "Hg4 mi
5:30 PM55 °FSprinkles. Broken clouds.15 mph94%29.83 "Hg4 mi
5:00 PM57 °FBroken clouds.14 mph88%29.83 "Hg5 mi
4:30 PM57 °FBroken clouds.9 mph94%29.83 "Hg4 mi
4:00 PM57 °FBroken clouds.14 mph94%29.83 "Hg4 mi
Weather by CustomWeather, © 2015

See weather overviewHow to use our weather pages